Weather History for Melfa, VA

Change the Weather History Date:

Tuesday, October 8, 2013

  Actual Average (KWAL) Record (KWAL)
Temperature  
Mean Temperature 65 °F 62 °F  
Max Temperature 68 °F 71 °F 84 °F (2007)
Min Temperature 62 °F 53 °F 35 °F (2001)
Degree Days  
Heating Degree Days 0    
Month to date heating degree days  
Since 1 July heating degree days  
Cooling Degree Days 0    
Month to date cooling degree days  
Year to date cooling degree days  
Growing Degree Days 15 (Base 50)    
Moisture  
Dew Point 48 °F    
Average Humidity 54    
Maximum Humidity 68    
Minimum Humidity 43    
Precipitation  
Precipitation 0.00 in 0.10 in 3.64 in (1996)
Month to date precipitation 0.83  
Year to date precipitation 32.20  
Sea Level Pressure  
Sea Level Pressure 30.17 in    
Wind  
Wind Speed 9 mph (NNE)    
Max Wind Speed 15 mph    
Max Gust Speed 25 mph    
Visibility 10 miles    
Events      
T = Trace of Precipitation, MM = Missing Value Source: NWS Daily Summary

Daily Weather History Graph

Daily Weather History Graph

Search for Another Location

Airport:

Trip Planner

Search our weather history database for the weather conditions in past years. The results will help you decide how hot, cold, wet, or windy it might be!

Date:

Astronomy

Oct. 08, 2013 Rise Set
Actual Time 7:05 AM EDT 6:35 PM EDT
Civil Twilight 6:38 AM EDT 7:01 PM EDT
Nautical Twilight 6:08 AM EDT 7:31 PM EDT
Astronomical Twilight 5:38 AM EDT 8:02 PM EDT
Moon 10:52 AM EDT (10/8) 9:14 PM EDT (10/8)
Length of Visible Light 12h 22m
Length of Day
11h 30m
Waxing Crescent, 16% of the Moon is Illuminated
Oct 8
Waxing Crescent
Oct 11
First Quarter
Oct 18
Full
Oct 26
Last Quarter
Nov 3
New

Hourly Weather History & Observations

Time (EDT) Temp. Dew Point Humidity Pressure Visibility Wind Dir Wind Speed Gust Speed Precip Events Conditions
12:16 AM 68.0 °F 55.4 °F 64% 30.03 in 10.0 mi North 6.9 mph - N/A   Overcast
12:36 AM 68.0 °F 55.4 °F 64% 30.04 in 10.0 mi North 9.2 mph - N/A   Overcast
12:56 AM 68.0 °F 55.4 °F 64% 30.05 in 10.0 mi North 8.1 mph - N/A   Overcast
1:15 AM 68.0 °F 55.4 °F 64% 30.06 in 10.0 mi North 6.9 mph - N/A   Overcast
1:35 AM 66.2 °F 51.8 °F 60% 30.06 in 10.0 mi North 8.1 mph - N/A   Overcast
1:55 AM 66.2 °F 48.2 °F 52% 30.06 in 10.0 mi North 11.5 mph 19.6 mph N/A   Overcast
2:15 AM 66.2 °F 46.4 °F 49% 30.06 in 10.0 mi North 10.4 mph 25.3 mph N/A   Overcast
2:36 AM 66.2 °F 44.6 °F 46% 30.06 in 10.0 mi North 15.0 mph 21.9 mph N/A   Overcast
2:55 AM 66.2 °F 44.6 °F 46% 30.08 in 10.0 mi NNE 9.2 mph - N/A   Overcast
3:15 AM 66.2 °F 46.4 °F 49% 30.08 in 10.0 mi North 11.5 mph 19.6 mph N/A   Overcast
3:35 AM 66.2 °F 44.6 °F 46% 30.08 in 10.0 mi North 10.4 mph - N/A   Overcast
3:56 AM 66.2 °F 46.4 °F 49% 30.09 in 10.0 mi NNE 8.1 mph 17.3 mph N/A   Overcast
4:15 AM 66.2 °F 46.4 °F 49% 30.10 in 10.0 mi North 9.2 mph 17.3 mph N/A   Overcast
4:36 AM 64.4 °F 46.4 °F 52% 30.10 in 10.0 mi NNE 10.4 mph - N/A   Overcast
4:56 AM 64.4 °F 46.4 °F 52% 30.11 in 10.0 mi NNE 9.2 mph - N/A   Overcast
5:16 AM 64.4 °F 46.4 °F 52% 30.11 in 10.0 mi North 10.4 mph 19.6 mph N/A   Overcast
5:36 AM 64.4 °F 44.6 °F 49% 30.13 in 10.0 mi North 11.5 mph 18.4 mph N/A   Overcast
5:56 AM 64.4 °F 42.8 °F 45% 30.13 in 10.0 mi NNE 13.8 mph 20.7 mph N/A   Overcast
6:16 AM 64.4 °F 42.8 °F 45% 30.13 in 10.0 mi North 13.8 mph 18.4 mph N/A   Overcast
6:36 AM 64.4 °F 42.8 °F 45% 30.14 in 10.0 mi North 11.5 mph 21.9 mph N/A   Overcast
6:58 AM 64.4 °F 44.6 °F 49% 30.14 in 10.0 mi North 12.7 mph 19.6 mph N/A   Overcast
7:15 AM 64.4 °F 44.6 °F 49% 30.15 in 10.0 mi NNE 13.8 mph 21.9 mph N/A   Overcast
7:35 AM 62.6 °F 44.6 °F 52% 30.16 in 10.0 mi North 11.5 mph 20.7 mph N/A   Overcast
7:56 AM 62.6 °F 44.6 °F 52% 30.17 in 10.0 mi North 10.4 mph 18.4 mph N/A   Overcast
8:17 AM 62.6 °F 44.6 °F 52% 30.18 in 10.0 mi NNE 6.9 mph 17.3 mph N/A   Overcast
8:35 AM 62.6 °F 44.6 °F 52% 30.19 in 10.0 mi North 11.5 mph 17.3 mph N/A   Overcast
8:55 AM 62.6 °F 44.6 °F 52% 30.20 in 10.0 mi North 13.8 mph 18.4 mph N/A   Overcast
9:15 AM 62.6 °F 46.4 °F 55% 30.20 in 10.0 mi NNE 9.2 mph - N/A   Overcast
9:35 AM 62.6 °F 46.4 °F 55% 30.21 in 10.0 mi NNE 12.7 mph - N/A   Mostly Cloudy
10:16 AM 62.6 °F 44.6 °F 52% 30.21 in 10.0 mi NNE 10.4 mph 17.3 mph N/A   Mostly Cloudy
10:35 AM 64.4 °F 44.6 °F 49% 30.21 in 10.0 mi NNE 6.9 mph 16.1 mph N/A   Overcast
10:56 AM 64.4 °F 44.6 °F 49% 30.20 in 10.0 mi NE 10.4 mph 16.1 mph N/A   Overcast
11:17 AM 64.4 °F 44.6 °F 49% 30.20 in 10.0 mi NE 9.2 mph 17.3 mph N/A   Mostly Cloudy
11:36 AM 64.4 °F 44.6 °F 49% 30.20 in 10.0 mi NNE 10.4 mph 16.1 mph N/A   Scattered Clouds
11:55 AM 66.2 °F 42.8 °F 43% 30.20 in 10.0 mi NE 9.2 mph - N/A   Scattered Clouds
12:15 PM 66.2 °F 42.8 °F 43% 30.21 in 10.0 mi NNE 10.4 mph 16.1 mph N/A   Clear
12:35 PM 66.2 °F 44.6 °F 46% 30.21 in 10.0 mi NE 10.4 mph 16.1 mph N/A   Clear
12:55 PM 66.2 °F 44.6 °F 46% 30.21 in 10.0 mi NE 9.2 mph 12.7 mph N/A   Mostly Cloudy
1:15 PM 66.2 °F 44.6 °F 46% 30.20 in 10.0 mi NNE 8.1 mph - N/A   Scattered Clouds
1:36 PM 66.2 °F 46.4 °F 49% 30.19 in 10.0 mi NE 5.8 mph - N/A   Scattered Clouds
1:55 PM 66.2 °F 46.4 °F 49% 30.18 in 10.0 mi NNE 9.2 mph - N/A   Clear
2:15 PM 66.2 °F 46.4 °F 49% 30.18 in 10.0 mi NNE 9.2 mph - N/A   Clear
2:35 PM 66.2 °F 46.4 °F 49% 30.20 in 10.0 mi NE 12.7 mph 19.6 mph N/A   Clear
2:55 PM 66.2 °F 46.4 °F 49% 30.20 in 10.0 mi NE 9.2 mph 17.3 mph N/A   Clear
3:15 PM 66.2 °F 48.2 °F 52% 30.19 in 10.0 mi NE 10.4 mph 18.4 mph N/A   Clear
3:36 PM 66.2 °F 48.2 °F 52% 30.19 in 10.0 mi NNE 9.2 mph - N/A   Clear
3:55 PM 66.2 °F 48.2 °F 52% 30.20 in 10.0 mi NNE 6.9 mph - N/A   Clear
4:35 PM 66.2 °F 50.0 °F 56% 30.20 in 10.0 mi North 6.9 mph - N/A   Clear
4:55 PM 66.2 °F 51.8 °F 60% 30.20 in 10.0 mi NNE 6.9 mph - N/A   Clear
5:15 PM 66.2 °F 51.8 °F 60% 30.21 in 10.0 mi North 5.8 mph - N/A   Clear
5:35 PM 66.2 °F 51.8 °F 60% 30.20 in 10.0 mi NNE 5.8 mph - N/A   Scattered Clouds
5:55 PM 64.4 °F 53.6 °F 68% 30.21 in 10.0 mi NNE 6.9 mph - N/A   Mostly Cloudy
6:15 PM 64.4 °F 53.6 °F 68% 30.21 in 10.0 mi NNE 6.9 mph - N/A   Mostly Cloudy
6:35 PM 64.4 °F 53.6 °F 68% 30.21 in 10.0 mi NNE 5.8 mph - N/A   Scattered Clouds
6:55 PM 64.4 °F 53.6 °F 68% 30.22 in 10.0 mi NNE 6.9 mph - N/A   Scattered Clouds
7:15 PM 64.4 °F 53.6 °F 68% 30.22 in 10.0 mi NNE 8.1 mph - N/A   Scattered Clouds
7:35 PM 64.4 °F 53.6 °F 68% 30.22 in 10.0 mi NNE 9.2 mph - N/A   Mostly Cloudy
7:58 PM 64.4 °F 53.6 °F 68% 30.21 in 10.0 mi NNE 9.2 mph - N/A   Scattered Clouds
8:16 PM 64.4 °F 51.8 °F 64% 30.21 in 10.0 mi NNE 9.2 mph - N/A   Clear
8:35 PM 64.4 °F 51.8 °F 64% 30.22 in 10.0 mi NNE 9.2 mph 16.1 mph N/A   Mostly Cloudy
8:56 PM 64.4 °F 51.8 °F 64% 30.23 in 10.0 mi NNE 5.8 mph - N/A   Overcast
9:15 PM 64.4 °F 51.8 °F 64% 30.22 in 10.0 mi NNE 10.4 mph - N/A   Overcast
9:35 PM 64.4 °F 50.0 °F 59% 30.23 in 10.0 mi NNE 8.1 mph - N/A   Overcast
9:55 PM 64.4 °F 50.0 °F 59% 30.23 in 10.0 mi NNE 8.1 mph - N/A   Scattered Clouds
10:16 PM 64.4 °F 50.0 °F 59% 30.23 in 10.0 mi NNE 9.2 mph - N/A   Scattered Clouds
10:35 PM 64.4 °F 50.0 °F 59% 30.23 in 10.0 mi NNE 6.9 mph - N/A   Clear
10:56 PM 64.4 °F 48.2 °F 56% 30.23 in 10.0 mi NNE 8.1 mph - N/A   Clear
11:16 PM 64.4 °F 48.2 °F 56% 30.22 in 10.0 mi NNE 9.2 mph - N/A   Scattered Clouds
11:35 PM 64.4 °F 48.2 °F 56% 30.21 in 10.0 mi NNE 10.4 mph - N/A   Mostly Cloudy
11:55 PM 64.4 °F 48.2 °F 56% 30.20 in 10.0 mi NNE 10.4 mph - N/A   Mostly Cloudy